Ashland, WI

2:13 PM CST on February 20, 2018 (GMT -0600)
Kennedy Memorial

Weather History for KASX - November, 2012

Change the Weather History Date:

Monday, November 19, 2012

  Actual Average Record
Temperature  
Mean Temperature 44 °F 30 °F  
Max Temperature 52 °F 37 °F 62 °F (1941)
Min Temperature 37 °F 22 °F 1 °F (1986)
Degree Days  
Heating Degree Days 20 35  
Month to date heating degree days 586  
Cooling Degree Days 0 0  
Month to date cooling degree days 0  
Moisture  
Dew Point 36 °F    
Average Humidity 67    
Maximum Humidity 89    
Minimum Humidity 52    
Precipitation  
Precipitation 0.00 in - 0.66 in (1953)
Sea Level Pressure  
Sea Level Pressure 30.09 in    
Wind  
Wind Speed 5 mph (SSW)    
Max Wind Speed 9 mph    
Max Gust Speed -    
Visibility 10 miles    
Events      
T = Trace of Precipitation, MM = Missing Value Source: NWS Daily Summary

Daily Weather History Graph

Daily Weather History Graph

Search for Another Location

Airport or City:

Trip Planner

Search our weather history database for the weather conditions in past years. The results will help you decide how hot, cold, wet, or windy it might be!

Date:

Astronomy

Nov. 19, 2012 Rise Set
Actual Time 7:12 AM CST 4:25 PM CST
Civil Twilight 6:38 AM CST 4:59 PM CST
Nautical Twilight 6:01 AM CST 5:36 PM CST
Astronomical Twilight 5:25 AM CST 6:11 PM CST
Moon 12:06 PM CST (11/19) 11:03 PM CST (11/19)
Length of Visible Light 10h 20m
Length of Day
9h 13m
Waxing Crescent, 41% of the Moon is Illuminated
Nov 19
Waxing Crescent
Nov 20
First Quarter
Nov 28
Full
Dec 6
Last Quarter
Dec 13
New

Hourly Weather History & Observations

Time (CST) Temp. Windchill Dew Point Humidity Pressure Visibility Wind Dir Wind Speed Gust Speed Precip Events Conditions
12:53 AM 46.9 °F - 30.9 °F 54% 30.14 in 10.0 mi SSW 5.8 mph - N/A   Clear
1:53 AM 46.9 °F - 30.9 °F 54% 30.13 in 10.0 mi South 6.9 mph - N/A   Clear
2:53 AM 48.0 °F - 32.0 °F 54% 30.12 in 10.0 mi SSW 9.2 mph - N/A   Scattered Clouds
3:53 AM 48.0 °F - 30.9 °F 52% 30.12 in 10.0 mi SSW 9.2 mph - N/A   Scattered Clouds
4:53 AM 45.0 °F 41.8 °F 30.9 °F 58% 30.13 in 10.0 mi SSW 5.8 mph - N/A   Clear
5:53 AM 44.1 °F 40.8 °F 30.9 °F 60% 30.12 in 10.0 mi SSW 5.8 mph - N/A   Clear
6:53 AM 45.0 °F 41.8 °F 32.0 °F 60% 30.12 in 10.0 mi South 5.8 mph - N/A   Scattered Clouds
7:53 AM 46.0 °F 41.9 °F 32.0 °F 58% 30.12 in 10.0 mi SSW 8.1 mph - N/A   Scattered Clouds
8:53 AM 48.9 °F - 33.1 °F 54% 30.12 in 10.0 mi SSW 6.9 mph - N/A   Overcast
9:53 AM 50.0 °F - 34.0 °F 54% 30.12 in 10.0 mi SSW 5.8 mph - 0.00 in   Overcast
10:53 AM 48.9 °F - 39.0 °F 69% 30.11 in 9.0 mi SSW 3.5 mph - N/A   Overcast
11:53 AM 48.0 °F - 43.0 °F 83% 30.08 in 10.0 mi Calm Calm - 0.00 in   Overcast
12:53 PM 50.0 °F - 43.0 °F 77% 30.08 in 10.0 mi Calm Calm - N/A   Overcast
1:53 PM 52.0 °F - 43.0 °F 71% 30.06 in 10.0 mi Calm Calm - N/A   Overcast
2:53 PM 51.1 °F - 43.0 °F 74% 30.05 in 10.0 mi Calm Calm - N/A   Overcast
3:53 PM 50.0 °F - 44.1 °F 80% 30.05 in 10.0 mi Calm Calm - N/A   Overcast
4:53 PM 52.0 °F - 39.0 °F 61% 30.06 in 10.0 mi South 5.8 mph - N/A   Overcast
5:53 PM 51.1 °F - 37.9 °F 61% 30.06 in 10.0 mi South 5.8 mph - N/A   Overcast
6:53 PM 50.0 °F - 37.9 °F 63% 30.06 in 10.0 mi SSW 4.6 mph - N/A   Overcast
7:53 PM 48.0 °F - 37.9 °F 68% 30.07 in 10.0 mi SSW 3.5 mph - N/A   Overcast
8:53 PM 42.1 °F - 36.0 °F 79% 30.07 in 10.0 mi Calm Calm - N/A   Clear
9:53 PM 39.0 °F - 35.1 °F 86% 30.06 in 10.0 mi Calm Calm - N/A   Scattered Clouds
10:53 PM 37.0 °F 33.3 °F 34.0 °F 89% 30.07 in 10.0 mi WSW 4.6 mph - N/A   Clear
11:53 PM 42.1 °F 38.4 °F 37.0 °F 82% 30.08 in 10.0 mi SW 5.8 mph - N/A   Clear